Weather History for Orlando International, FL

Change the Weather History Date:

Thursday, November 10, 2011

  Actual Average Record
Temperature  
Mean Temperature 67 °F 70 °F  
Max Temperature 77 °F 80 °F 90 °F (1895)
Min Temperature 57 °F 60 °F 35 °F (1913)
Degree Days  
Heating Degree Days 0 1  
Month to date heating degree days 1 10  
Since 1 July heating degree days 9 15  
Cooling Degree Days 2 6  
Month to date cooling degree days 36 64  
Year to date cooling degree days 3507 3271  
Growing Degree Days 17 (Base 50)    
Moisture  
Dew Point 55 °F    
Average Humidity 68    
Maximum Humidity 100    
Minimum Humidity 36    
Precipitation  
Precipitation T in 0.08 in 3.80 in (1963)
Month to date precipitation 0.03 0.76  
Year to date precipitation 55.98 46.74  
Sea Level Pressure  
Sea Level Pressure 29.93 in    
Wind  
Wind Speed 8 mph (NW)    
Max Wind Speed 21 mph    
Max Gust Speed 28 mph    
Visibility 10 miles    
Events Rain    
T = Trace of Precipitation, MM = Missing Value Source: NWS Daily Summary

Daily Weather History Graph

Daily Weather History Graph

Search for Another Location

Airport:

Trip Planner

Search our weather history database for the weather conditions in past years. The results will help you decide how hot, cold, wet, or windy it might be!

Date:

Astronomy

Nov. 10, 2011 Rise Set
Actual Time 6:43 AM EST 5:34 PM EST
Civil Twilight 6:18 AM EST 5:59 PM EST
Nautical Twilight 5:50 AM EST 6:27 PM EST
Astronomical Twilight 5:22 AM EST 6:55 PM EST
Moon 5:26 PM EST (11/10) 6:31 AM EST (11/10)
Length of Visible Light 11h 40m
Length of Day
10h 51m
Full, 100% of the Moon is Illuminated
Nov 10
Full
Nov 10
Full
Nov 18
Last Quarter
Nov 25
New
Dec 2
First Quarter

Hourly Weather History & Observations

Time (EST) Temp. Dew Point Humidity Pressure Visibility Wind Dir Wind Speed Gust Speed Precip Events Conditions
12:53 AM 63.0 °F 60.1 °F 90% 29.94 in 10.0 mi NW 6.9 mph - N/A   Partly Cloudy
1:53 AM 62.1 °F 60.1 °F 93% 29.94 in 10.0 mi NW 4.6 mph - N/A   Scattered Clouds
2:53 AM 61.0 °F 60.1 °F 97% 29.92 in 10.0 mi Calm Calm - N/A   Partly Cloudy
3:53 AM 60.1 °F 59.0 °F 96% 29.91 in 10.0 mi WNW 4.6 mph - N/A   Clear
4:53 AM 59.0 °F 57.9 °F 96% 29.92 in 10.0 mi Calm Calm - N/A   Clear
5:53 AM 59.0 °F 57.0 °F 93% 29.93 in 10.0 mi NW 5.8 mph - N/A   Clear
6:53 AM 57.9 °F 55.9 °F 93% 29.94 in 10.0 mi Calm Calm - N/A   Clear
7:53 AM 62.1 °F 55.9 °F 80% 29.95 in 10.0 mi WNW 4.6 mph - N/A   Clear
8:53 AM 66.0 °F 55.0 °F 68% 29.96 in 10.0 mi NNW 6.9 mph - N/A   Partly Cloudy
9:53 AM 70.0 °F 54.0 °F 57% 29.96 in 10.0 mi NW 9.2 mph - N/A   Partly Cloudy
10:53 AM 73.0 °F 51.1 °F 46% 29.94 in 10.0 mi North 5.8 mph - N/A   Scattered Clouds
11:53 AM 75.0 °F 48.9 °F 40% 29.92 in 10.0 mi NW 11.5 mph - N/A   Partly Cloudy
12:53 PM 75.9 °F 48.0 °F 37% 29.89 in 10.0 mi NW 10.4 mph - N/A   Partly Cloudy
1:53 PM 75.9 °F 46.0 °F 35% 29.88 in 10.0 mi NW 12.7 mph - N/A   Mostly Cloudy
2:53 PM 75.9 °F 46.9 °F 36% 29.87 in 10.0 mi NW 8.1 mph - N/A   Mostly Cloudy
3:53 PM 77.0 °F 50.0 °F 39% 29.87 in 10.0 mi WNW 9.2 mph - N/A   Scattered Clouds
4:53 PM 75.0 °F 52.0 °F 44% 29.88 in 10.0 mi NNW 8.1 mph - N/A   Scattered Clouds
5:53 PM 73.0 °F 53.1 °F 49% 29.89 in 10.0 mi WNW 3.5 mph - N/A   Scattered Clouds
6:53 PM 71.1 °F 55.9 °F 59% 29.91 in 9.0 mi WNW 9.2 mph - N/A   Mostly Cloudy
7:53 PM 70.0 °F 57.9 °F 65% 29.92 in 9.0 mi West 11.5 mph - N/A   Overcast
8:53 PM 69.1 °F 59.0 °F 70% 29.94 in 10.0 mi WNW 12.7 mph - N/A   Overcast
9:53 PM 66.9 °F 61.0 °F 81% 29.96 in 10.0 mi WNW 13.8 mph - N/A   Mostly Cloudy
10:37 PM 66.2 °F 62.6 °F 88% 29.96 in 10.0 mi NW 12.7 mph - 0.00 in Rain Light Rain
10:53 PM 64.9 °F 59.0 °F 81% 29.96 in 10.0 mi NNW 15.0 mph 21.9 mph 0.00 in   Overcast
11:04 PM 64.4 °F 59.0 °F 83% 29.96 in 10.0 mi NNW 16.1 mph - N/A   Mostly Cloudy
11:22 PM 64.4 °F 57.2 °F 77% 29.96 in 10.0 mi NNW 16.1 mph - N/A   Mostly Cloudy
11:46 PM 64.4 °F 55.4 °F 73% 29.97 in 10.0 mi NNW 16.1 mph - N/A   Mostly Cloudy
11:53 PM 64.0 °F 55.9 °F 75% 29.97 in 10.0 mi NNW 13.8 mph - N/A   Mostly Cloudy